| time (UTC) | temp F | wind direction | speed knots | gust knots | rain 1hr in | rain 24hr in | rain mn in | humidity % | barometer mb |
| 20260505230525 | 42 | 0.0 | 0.0 | 0.00 | 0.00 | 0.00 | 99 | 1015.0 | |
| 20260505225524 | 42 | 0.0 | 0.0 | 0.00 | 0.00 | 0.00 | 99 | 1015.0 | |
| 20260505224545 | 43 | 0.0 | 0.0 | 0.00 | 0.00 | 0.00 | 99 | 1015.1 | |
| 20260505223524 | 43 | 0.0 | 0.0 | 0.00 | 0.00 | 0.00 | 99 | 1015.3 | |
| 20260505222545 | 43 | 0.0 | 0.0 | 0.00 | 0.00 | 0.00 | 98 | 1015.3 | |
| 20260505221524 | 43 | 0.0 | 0.0 | 0.00 | 0.00 | 0.00 | 98 | 1015.4 | |
| 20260505220537 | 43 | 0.0 | 0.0 | 0.00 | 0.00 | 0.00 | 98 | 1015.4 | |
| 20260505215525 | 44 | 0.0 | 0.0 | 0.00 | 0.00 | 0.00 | 99 | 1015.5 | |
| 20260505214524 | 43 | 0.0 | 0.0 | 0.00 | 0.00 | 0.00 | 98 | 1015.5 | |
| 20260505213525 | 44 | 0.0 | 0.0 | 0.00 | 0.00 | 0.00 | 98 | 1015.6 | |
| 20260505212524 | 44 | 0.0 | 0.0 | 0.00 | 0.00 | 0.00 | 97 | 1015.6 | |
| 20260505211536 | 45 | 0.0 | 0.0 | 0.00 | 0.00 | 0.00 | 97 | 1015.7 | |
| 20260505210524 | 45 | 0.0 | 0.0 | 0.00 | 0.00 | 0.00 | 96 | 1015.7 | |
| 20260505205524 | 46 | 0.0 | 0.0 | 0.00 | 0.00 | 0.00 | 96 | 1015.8 | |
| 20260505204544 | 46 | 0.0 | 0.0 | 0.00 | 0.00 | 0.00 | 96 | 1015.8 | |
| 20260505203524 | 46 | 0.0 | 0.0 | 0.00 | 0.00 | 0.00 | 94 | 1015.8 | |
| 20260505202524 | 47 | 0.0 | 0.0 | 0.00 | 0.00 | 0.00 | 93 | 1015.8 | |
| 20260505201545 | 48 | 0.0 | 0.0 | 0.00 | 0.00 | 0.00 | 91 | 1015.8 | |
| 20260505200537 | 49 | 0.0 | 0.0 | 0.00 | 0.00 | 0.00 | 89 | 1015.8 | |
| 20260505195524 | 49 | 0.0 | 0.0 | 0.00 | 0.00 | 0.00 | 88 | 1015.8 | |
| 20260505194524 | 49 | 225 | 0.0 | 1.7 | 0.00 | 0.00 | 0.00 | 90 | 1015.8 |
| 20260505193525 | 49 | 0.0 | 0.0 | 0.00 | 0.00 | 0.00 | 93 | 1015.8 | |
| 20260505192524 | 49 | 225 | 0.0 | 1.7 | 0.00 | 0.00 | 0.00 | 95 | 1015.8 |
| 20260505191524 | 49 | 225 | 0.0 | 1.7 | 0.00 | 0.00 | 0.00 | 97 | 1015.8 |
| 20260505190525 | 49 | 225 | 0.0 | 1.7 | 0.00 | 0.00 | 0.00 | 96 | 1015.7 |
| 20260505185549 | 49 | 0.0 | 0.0 | 0.00 | 0.00 | 0.00 | 96 | 1015.7 | |
| 20260505184524 | 49 | 0.0 | 0.0 | 0.00 | 0.00 | 0.00 | 95 | 1015.7 | |
| 20260505183524 | 49 | 225 | 0.9 | 1.7 | 0.00 | 0.00 | 0.00 | 96 | 1015.7 |
| 20260505182525 | 49 | 225 | 0.0 | 1.7 | 0.00 | 0.00 | 0.00 | 96 | 1015.5 |
| 20260505181525 | 49 | 225 | 0.0 | 1.7 | 0.00 | 0.00 | 0.00 | 96 | 1015.5 |
| 20260505180556 | 50 | 0.0 | 0.0 | 0.00 | 0.00 | 0.00 | 95 | 1015.4 | |
| 20260505175536 | 50 | 203 | 0.0 | 1.7 | 0.00 | 0.00 | 0.00 | 95 | 1015.4 |
| 20260505174525 | 50 | 203 | 0.9 | 1.7 | 0.00 | 0.00 | 0.00 | 95 | 1015.3 |
| 20260505173524 | 50 | 0.0 | 0.0 | 0.00 | 0.00 | 0.00 | 94 | 1015.3 | |
| 20260505172537 | 51 | 203 | 0.0 | 0.0 | 0.00 | 0.00 | 0.00 | 93 | 1015.2 |
| 20260505171525 | 51 | 203 | 0.9 | 1.7 | 0.00 | 0.00 | 0.00 | 93 | 1015.2 |
| 20260505170525 | 52 | 191 | 0.9 | 1.7 | 0.00 | 0.00 | 0.00 | 91 | 1015.3 |
| 20260505165524 | 52 | 180 | 1.7 | 3.5 | 0.00 | 0.00 | 0.00 | 91 | 1015.2 |
| 20260505164524 | 52 | 197 | 1.7 | 3.5 | 0.00 | 0.00 | 0.00 | 90 | 1015.2 |
| 20260505163524 | 53 | 203 | 0.9 | 1.7 | 0.00 | 0.00 | 0.00 | 88 | 1015.2 |
| 20260505162536 | 53 | 201 | 1.7 | 3.5 | 0.00 | 0.00 | 0.00 | 86 | 1015.1 |
| 20260505161525 | 53 | 203 | 1.7 | 3.5 | 0.00 | 0.00 | 0.00 | 82 | 1015.0 |
| 20260505160525 | 53 | 188 | 1.7 | 3.5 | 0.00 | 0.00 | 0.00 | 79 | 1015.1 |
| 20260505152524 | 54 | 159 | 2.6 | 6.1 | 0.00 | 0.00 | 0.00 | 84 | 1015.0 |
| 20260505151524 | 54 | 170 | 1.7 | 3.5 | 0.00 | 0.00 | 0.00 | 81 | 1015.2 |
| 20260505150525 | 55 | 225 | 2.6 | 6.1 | 0.00 | 0.00 | 0.00 | 81 | 1015.3 |
| 20260505140525 | 57 | 190 | 4.3 | 7.8 | 0.00 | 0.00 | 0.00 | 75 | 1015.4 |
| 20260505124525 | 57 | 145 | 4.3 | 9.6 | 0.00 | 0.00 | 0.00 | 74 | 1015.5 |
| 20260505123525 | 57 | 122 | 5.2 | 7.8 | 0.00 | 0.00 | 0.00 | 74 | 1015.6 |
| 20260505122524 | 57 | 137 | 5.2 | 9.6 | 0.00 | 0.00 | 0.00 | 74 | 1015.6 |
| 20260505121537 | 57 | 152 | 5.2 | 7.8 | 0.00 | 0.00 | 0.00 | 71 | 1015.7 |
| 20260505120524 | 57 | 146 | 6.1 | 13.0 | 0.00 | 0.00 | 0.00 | 72 | 1015.7 |
| 20260505115524 | 57 | 139 | 5.2 | 9.6 | 0.00 | 0.00 | 0.00 | 74 | 1015.7 |
| 20260505114524 | 57 | 138 | 5.2 | 7.8 | 0.00 | 0.00 | 0.00 | 73 | 1015.7 |
| 20260505113525 | 58 | 146 | 4.3 | 9.6 | 0.00 | 0.00 | 0.00 | 72 | 1015.7 |
| 20260505112536 | 58 | 143 | 5.2 | 7.8 | 0.00 | 0.00 | 0.00 | 69 | 1015.7 |
| 20260505111525 | 58 | 137 | 4.3 | 9.6 | 0.00 | 0.00 | 0.00 | 69 | 1015.7 |
| 20260505110524 | 59 | 155 | 6.1 | 9.6 | 0.00 | 0.00 | 0.00 | 66 | 1015.6 |
| 20260505101524 | 60 | 157 | 4.3 | 7.8 | 0.00 | 0.00 | 0.00 | 59 | 1015.5 |
| 20260505100536 | 60 | 146 | 4.3 | 7.8 | 0.00 | 0.00 | 0.00 | 57 | 1015.6 |
| 20260505095525 | 60 | 125 | 7.0 | 13.0 | 0.00 | 0.00 | 0.00 | 57 | 1015.5 |
| 20260505094525 | 60 | 126 | 6.1 | 13.0 | 0.00 | 0.00 | 0.00 | 55 | 1015.6 |
| 20260505093537 | 62 | 136 | 5.2 | 13.0 | 0.00 | 0.00 | 0.00 | 52 | 1015.6 |
| 20260505092524 | 61 | 146 | 5.2 | 7.8 | 0.00 | 0.00 | 0.00 | 53 | 1015.6 |
| 20260505091524 | 61 | 139 | 5.2 | 7.8 | 0.00 | 0.00 | 0.00 | 55 | 1015.7 |
| 20260505090525 | 62 | 118 | 2.6 | 4.3 | 0.00 | 0.00 | 0.00 | 52 | 1015.7 |
| 20260505085525 | 64 | 60 | 5.2 | 9.6 | 0.00 | 0.00 | 0.00 | 38 | 1015.8 |
| 20260505084536 | 64 | 72 | 7.0 | 9.6 | 0.00 | 0.00 | 0.00 | 39 | 1015.8 |
| 20260505083525 | 64 | 41 | 5.2 | 7.8 | 0.00 | 0.00 | 0.00 | 41 | 1015.8 |
| 20260505082548 | 64 | 35 | 4.3 | 7.8 | 0.00 | 0.00 | 0.00 | 40 | 1015.8 |
| 20260505081545 | 64 | 29 | 5.2 | 7.8 | 0.00 | 0.00 | 0.00 | 40 | 1015.7 |
| 20260505080525 | 64 | 27 | 5.2 | 7.8 | 0.00 | 0.00 | 0.00 | 44 | 1015.8 |
| 20260505075525 | 63 | 20 | 6.1 | 9.6 | 0.00 | 0.00 | 0.00 | 41 | 1015.8 |
| 20260505074525 | 62 | 36 | 6.1 | 9.6 | 0.00 | 0.00 | 0.00 | 42 | 1015.8 |
| 20260505073549 | 63 | 20 | 5.2 | 7.8 | 0.00 | 0.00 | 0.00 | 44 | 1015.8 |
| 20260505072525 | 62 | 25 | 5.2 | 7.8 | 0.00 | 0.00 | 0.00 | 44 | 1015.8 |
| 20260505071525 | 61 | 31 | 6.1 | 7.8 | 0.00 | 0.00 | 0.00 | 46 | 1015.8 |
| 20260505070524 | 61 | 42 | 6.1 | 9.6 | 0.00 | 0.00 | 0.00 | 46 | 1015.8 |
| 20260505065525 | 61 | 27 | 6.1 | 7.8 | 0.00 | 0.00 | 0.00 | 44 | 1015.7 |
| 20260505064545 | 61 | 20 | 6.1 | 7.8 | 0.00 | 0.00 | 0.00 | 46 | 1015.6 |
| 20260505063525 | 61 | 23 | 5.2 | 9.6 | 0.00 | 0.00 | 0.00 | 47 | 1015.6 |
| 20260505062525 | 61 | 20 | 6.1 | 7.8 | 0.00 | 0.00 | 0.00 | 46 | 1015.5 |
| 20260505061525 | 61 | 357 | 5.2 | 6.1 | 0.00 | 0.00 | 0.00 | 47 | 1015.4 |
| 20260505060545 | 60 | 15 | 5.2 | 7.8 | 0.00 | 0.00 | 0.00 | 47 | 1015.4 |
| 20260505055524 | 59 | 19 | 5.2 | 7.8 | 0.00 | 0.00 | 0.00 | 49 | 1015.4 |
| 20260505054524 | 58 | 25 | 5.2 | 7.8 | 0.00 | 0.00 | 0.00 | 52 | 1015.3 |
| 20260505053537 | 58 | 18 | 6.1 | 7.8 | 0.00 | 0.00 | 0.00 | 54 | 1015.2 |
| 20260505052524 | 59 | 24 | 5.2 | 7.8 | 0.00 | 0.00 | 0.00 | 51 | 1015.2 |
| 20260505051545 | 58 | 328 | 3.5 | 6.1 | 0.00 | 0.00 | 0.00 | 53 | 1015.0 |
| 20260505050537 | 57 | 318 | 3.5 | 6.1 | 0.00 | 0.00 | 0.00 | 54 | 1015.0 |
| 20260505041549 | 51 | 319 | 4.3 | 6.1 | 0.00 | 0.00 | 0.00 | 57 | 1014.7 |
| 20260505040548 | 50 | 323 | 3.5 | 6.1 | 0.00 | 0.00 | 0.00 | 59 | 1014.6 |
| 20260505035525 | 49 | 317 | 3.5 | 6.1 | 0.00 | 0.00 | 0.00 | 58 | 1014.5 |
| 20260505034525 | 49 | 315 | 4.3 | 6.1 | 0.00 | 0.00 | 0.00 | 59 | 1014.5 |
| 20260505033525 | 48 | 322 | 4.3 | 6.1 | 0.00 | 0.00 | 0.00 | 58 | 1014.4 |
| 20260505032525 | 47 | 313 | 3.5 | 6.1 | 0.00 | 0.00 | 0.00 | 59 | 1014.4 |
| 20260505031525 | 47 | 316 | 3.5 | 6.1 | 0.00 | 0.00 | 0.00 | 60 | 1014.4 |
| 20260505030524 | 46 | 328 | 3.5 | 3.5 | 0.00 | 0.00 | 0.00 | 61 | 1014.3 |
| 20260505025525 | 46 | 333 | 3.5 | 6.1 | 0.00 | 0.00 | 0.00 | 61 | 1014.3 |
| 20260505024548 | 46 | 321 | 3.5 | 6.1 | 0.00 | 0.00 | 0.00 | 61 | 1014.3 |
| 20260505023545 | 46 | 328 | 2.6 | 6.1 | 0.00 | 0.00 | 0.00 | 61 | 1014.2 |
| 20260505022545 | 46 | 331 | 2.6 | 3.5 | 0.00 | 0.00 | 0.00 | 61 | 1014.2 |
| 20260505021525 | 45 | 318 | 3.5 | 6.1 | 0.00 | 0.00 | 0.00 | 61 | 1014.2 |
| 20260505020545 | 45 | 332 | 3.5 | 3.5 | 0.00 | 0.00 | 0.00 | 62 | 1014.1 |
| 20260505015545 | 45 | 336 | 1.7 | 3.5 | 0.00 | 0.00 | 0.00 | 63 | 1014.1 |
| 20260505014525 | 45 | 330 | 1.7 | 3.5 | 0.00 | 0.00 | 0.00 | 63 | 1014.1 |
| 20260505013524 | 45 | 338 | 1.7 | 3.5 | 0.00 | 0.00 | 0.00 | 64 | 1014.2 |
| 20260505012525 | 45 | 320 | 2.6 | 3.5 | 0.00 | 0.00 | 0.00 | 62 | 1014.2 |
| 20260505011524 | 46 | 321 | 1.7 | 3.5 | 0.00 | 0.00 | 0.00 | 61 | 1014.2 |
| 20260505010525 | 46 | 317 | 2.6 | 3.5 | 0.00 | 0.00 | 0.00 | 60 | 1014.1 |
| 20260505005524 | 46 | 318 | 2.6 | 3.5 | 0.00 | 0.00 | 0.00 | 60 | 1014.1 |
| 20260505004524 | 46 | 319 | 2.6 | 3.5 | 0.00 | 0.00 | 0.00 | 61 | 1014.1 |
| 20260505003536 | 46 | 322 | 2.6 | 3.5 | 0.00 | 0.00 | 0.00 | 62 | 1014.1 |
| 20260505002525 | 47 | 316 | 2.6 | 3.5 | 0.00 | 0.00 | 0.00 | 60 | 1014.1 |
| 20260505001524 | 46 | 316 | 2.6 | 6.1 | 0.00 | 0.00 | 0.00 | 62 | 1014.2 |
| 20260505000524 | 46 | 330 | 2.6 | 3.5 | 0.00 | 0.00 | 0.00 | 62 | 1014.1 |
| 20260504235525 | 47 | 321 | 2.6 | 6.1 | 0.00 | 0.00 | 0.00 | 61 | 1014.2 |
| 20260504234545 | 46 | 319 | 2.6 | 6.1 | 0.00 | 0.00 | 0.00 | 62 | 1014.3 |
| 20260504233525 | 47 | 313 | 3.5 | 6.1 | 0.00 | 0.00 | 0.00 | 61 | 1014.4 |
| 20260504232524 | 47 | 308 | 3.5 | 6.1 | 0.00 | 0.00 | 0.00 | 61 | 1014.4 |
| 20260504231525 | 47 | 310 | 2.6 | 6.1 | 0.00 | 0.00 | 0.00 | 61 | 1014.4 |